[[{"header":{"parameterUnit":"m.s-1","parameterCategory":1,"la1":30.2991,"la2":30.254,"lo1":-89.0895,"lo2":-89.0444,"dy":0.0017,"dx":0.0017,"nx":28,"ny":28,"refTime":"2024-08-05T03:00:00:Z","depth":0,"parameterNumber":2,"parameterNumberName":"U-component_of_WINDS"},"data":[0,0,0,0,0,0,0,0,0,0,0,0,0,0,0,0,0,0,0,0,0,0,0,0,0,0,0,0,0,0,0,0,0,0,0,0,0,0,0,0,0,0,0,0,0,0,0,0,0,0,0,0,0,0,0,0,0,0,1.0455,1.0456,0,1.0522,1.0523,1.0524,1.055,1.0549,1.0549,1.0549,1.0617,1.0619,1.062,0,0,0,0,0,0,0,0,0,0,0,0,0,1.0351,1.0353,1.0455,1.0456,1.0457,1.0522,1.0523,1.0524,1.055,1.0549,1.0549,1.0549,1.0616,1.0618,1.0621,0,0,0,0,0,0,0,0,0,0,0,0,0,1.0405,1.0353,1.0455,1.0478,1.0481,1.0522,1.0523,1.0524,1.055,1.0549,1.0549,1.0549,1.0615,1.0618,1.0621,1.0644,0,0,1.063,1.0631,0,0,0,0,0,0,0,0,1.0402,1.0409,1.0474,1.0476,1.0479,1.0527,1.0511,1.0564,1.055,1.0523,1.0549,1.0549,1.0587,1.0592,1.0605,1.0647,1.065,1.063,1.0632,1.0633,1.0634,0,0,0,0,0,0,0,1.0398,1.0406,1.0482,1.0475,1.0478,1.0485,1.0492,1.0521,1.0556,1.0526,1.0528,1.0535,1.0589,1.0602,1.0607,1.0651,1.063,1.0633,1.0635,1.0636,1.0717,1.0718,0,0,0,0,0,0,1.0391,1.0403,1.048,1.0484,1.0439,1.0487,1.0495,1.0512,1.0556,1.0562,1.0536,1.0536,1.0598,1.0604,1.061,1.0641,1.0633,1.0636,1.0638,1.0717,1.0718,1.0718,0,0,0,0,0,0,1.0388,1.0397,1.0477,1.0444,1.0455,1.0489,1.0508,1.0514,1.0528,1.0563,1.0569,1.0543,1.0598,1.0605,1.0636,1.0643,1.0637,1.064,1.0717,1.0717,1.0718,1.0702,0,0,0,0,0,0,1.0385,1.0396,1.0405,1.0444,1.0456,1.0502,1.0508,1.0515,1.0533,1.0534,1.0572,1.0578,1.0598,1.0631,1.0639,1.0647,1.0642,1.0716,1.0717,1.0718,1.0702,1.0702,1.0702,0,0,0,0,0,1.0381,1.0398,1.0406,1.0415,1.0468,1.0502,1.0509,1.0532,1.0533,1.0543,1.0566,1.0577,1.0641,1.0634,1.0643,1.0652,1.0716,1.0717,1.0718,1.0702,1.0702,1.0702,0,0,0,0,0,0,1.0359,1.0403,1.0412,1.0442,1.0468,1.0507,1.0519,1.0531,1.0558,1.0558,1.0585,1.0594,1.0622,1.064,1.0631,1.0678,1.0679,1.0682,1.0665,1.0665,1.0665,1.066,1.0645,0,0,0,0,0,1.0357,1.0381,1.0419,1.0441,1.0454,1.0484,1.05,1.0516,1.0544,1.0555,1.058,1.0607,1.0634,1.065,1.0677,1.0705,1.0714,1.0716,1.0716,1.0716,1.0718,1.0735,1.0737,1.0721,1.0721,1.0721,0,0,1.0354,1.0381,1.0395,1.0437,1.0459,1.0484,1.0493,1.0519,1.0537,1.0559,1.0589,1.0609,1.0641,1.067,1.0685,1.0687,1.0724,1.0717,1.0717,1.0719,1.0736,1.0738,1.0739,1.0722,1.0722,1.0721,0,0,1.0361,1.0384,1.0406,1.0428,1.0462,1.0482,1.0487,1.0524,1.0538,1.057,1.0587,1.0609,1.0654,1.0676,1.0693,1.0711,1.0722,1.0718,1.0718,1.0735,1.0736,1.0737,1.0744,1.0746,1.072,1.072,1.072,0,1.0353,1.039,1.0415,1.044,1.0458,1.048,1.0502,1.0522,1.0563,1.0575,1.0577,1.0634,1.0657,1.0693,1.0698,1.0711,1.0718,1.0714,1.0734,1.0736,1.0737,1.0744,1.0746,1.072,1.072,1.072,1.072,0,1.0379,1.0405,1.0418,1.0457,1.0478,1.0501,1.0529,1.0547,1.0561,1.0581,1.0613,1.0642,1.0675,1.0684,1.0698,1.0723,1.0723,1.0729,1.0731,1.0738,1.0744,1.0747,1.0719,1.0719,1.0719,1.0719,0,0,1.0373,1.0426,1.0431,1.0449,1.0489,1.0509,1.0534,1.0567,1.0581,1.0609,1.0631,1.0669,1.0675,1.0695,1.0711,1.0726,1.0738,1.073,1.0732,1.0731,1.0768,1.0763,1.0766,1.0746,1.0747,1.0748,1.0766,0,1.0385,1.043,1.0454,1.0489,1.0514,1.0535,1.0557,1.0583,1.0603,1.0627,1.0649,1.0676,1.0682,1.0694,1.071,1.0733,1.0746,1.0733,1.0767,1.0768,1.0758,1.0769,1.0764,1.078,1.0768,1.0769,1.0769,0,1.0405,1.0433,1.0471,1.0509,1.052,1.0539,1.0572,1.0594,1.0625,1.0639,1.0661,1.0678,1.0705,1.0706,1.0744,1.0734,1.075,1.0764,1.0765,1.0769,1.0769,1.0774,1.0785,1.0787,1.0773,1.0773,1.0773,0,1.0398,1.0445,1.0474,1.0489,1.0533,1.0546,1.0565,1.0596,1.0615,1.0643,1.0656,1.0687,1.0704,1.0728,1.0753,1.075,1.0789,1.0791,1.0801,1.0801,1.0808,1.0807,1.0822,1.0818,1.0818,1.0818,1.0818,0,1.0409,1.0431,1.0471,1.0489,1.0515,1.0542,1.0567,1.0588,1.0615,1.0638,1.0658,1.0679,1.071,1.0735,1.0755,1.0784,1.0792,1.0804,1.0808,1.0802,1.08,1.0812,1.0812,1.0819,1.0818,1.0818,1.0818,0,1.0404,1.0432,1.0465,1.0505,1.0515,1.0533,1.0567,1.0585,1.0607,1.0635,1.0643,1.0677,1.0707,1.0735,1.0775,1.0788,1.0818,1.0824,1.0808,1.081,1.0819,1.0818,1.0842,1.0847,1.0839,1.0839,1.0839,0,1.041,1.0428,1.047,1.0487,1.0506,1.0532,1.0551,1.0579,1.0598,1.0636,1.065,1.0682,1.0709,1.0757,1.0785,1.0816,1.0823,1.083,1.0828,1.0821,1.0824,1.0822,1.0825,1.0829,1.0829,1.0829,1.0829,0,1.0417,1.043,1.0457,1.0489,1.0512,1.0538,1.0565,1.0578,1.0611,1.0632,1.0663,1.0684,1.0726,1.0758,1.0792,1.0812,1.0826,1.083,1.0834,1.0827,1.0817,1.0823,1.0807,1.0829,1.0829,1.0829,1.0829,1.0829,1.0418,1.0435,1.0468,1.0498,1.0521,1.0546,1.0566,1.059,1.0617,1.0653,1.0668,1.07,1.0732,1.078,1.08,1.0826,1.0829,1.0834,1.0836,1.0837,1.0836,1.0813,1.0833,1.0833,1.0833,1.0833,1.0833,0,1.0427,1.0449,1.0476,1.0514,1.0537,1.0549,1.058,1.0599,1.0627,1.0656,1.0682,1.0719,1.075,1.0781,1.0814,1.0829,1.0837,1.0837,1.0836,1.0841,1.0832,1.0825,1.0831,1.0831,1.0831,1.0831,1.0831,1.0831,1.0434,1.0464,1.0481,1.0523,1.0545,1.0577,1.0594,1.0617,1.0641,1.0681,1.0707,1.0727,1.0757,1.0793,1.0822,1.0831,1.0842,1.084,1.0851,1.0841,1.0841,1.0841,1.0835,1.0843,1.0843,1.0858,1.0858,1.0858]},{"header":{"parameterUnit":"m.s-1","parameterCategory":1,"la1":30.2991,"la2":30.254,"lo1":-89.0895,"lo2":-89.0444,"dy":0.0017,"dx":0.0017,"nx":28,"ny":28,"refTime":"2024-08-05T03:00:00:Z","depth":0,"parameterNumber":3,"parameterNumberName":"V-component_of_WINDS"},"data":[0,0,0,0,0,0,0,0,0,0,0,0,0,0,0,0,0,0,0,0,0,0,0,0,0,0,0,0,0,0,0,0,0,0,0,0,0,0,0,0,0,0,0,0,0,0,0,0,0,0,0,0,0,0,0,0,0,0,-1.7595,-1.7596,0,-1.7673,-1.7674,-1.7675,-1.7689,-1.7688,-1.7687,-1.7687,-1.7766,-1.7769,-1.7772,0,0,0,0,0,0,0,0,0,0,0,0,0,-1.7457,-1.7459,-1.7595,-1.7596,-1.7597,-1.7673,-1.7674,-1.7675,-1.7689,-1.7688,-1.7687,-1.7686,-1.7765,-1.7768,-1.7772,0,0,0,0,0,0,0,0,0,0,0,0,0,-1.7524,-1.746,-1.7595,-1.7613,-1.7615,-1.7673,-1.7674,-1.7676,-1.7689,-1.7688,-1.7687,-1.7686,-1.7764,-1.7768,-1.7772,-1.7817,0,0,-1.7785,-1.7787,0,0,0,0,0,0,0,0,-1.752,-1.7529,-1.7609,-1.7612,-1.7614,-1.767,-1.7655,-1.7723,-1.7689,-1.7661,-1.7687,-1.7685,-1.7735,-1.7741,-1.7758,-1.7821,-1.7824,-1.7785,-1.7788,-1.7789,-1.7791,0,0,0,0,0,0,0,-1.7516,-1.7526,-1.7626,-1.761,-1.7614,-1.7617,-1.7625,-1.7668,-1.7702,-1.7663,-1.7664,-1.7674,-1.7736,-1.7754,-1.776,-1.7826,-1.7785,-1.7789,-1.7791,-1.7793,-1.793,-1.7931,0,0,0,0,0,0,-1.7508,-1.7522,-1.7623,-1.7628,-1.7564,-1.762,-1.763,-1.7653,-1.7702,-1.7709,-1.7674,-1.7674,-1.7748,-1.7755,-1.7763,-1.7819,-1.7789,-1.7793,-1.7796,-1.7929,-1.793,-1.7932,0,0,0,0,0,0,-1.7505,-1.7517,-1.762,-1.7576,-1.7589,-1.7624,-1.765,-1.7655,-1.7673,-1.771,-1.7717,-1.7686,-1.7747,-1.7757,-1.7804,-1.7822,-1.7795,-1.7799,-1.7927,-1.7929,-1.7931,-1.7932,0,0,0,0,0,0,-1.7501,-1.7516,-1.7533,-1.7576,-1.7591,-1.766,-1.7651,-1.7658,-1.7681,-1.7681,-1.7723,-1.773,-1.7747,-1.7798,-1.7808,-1.7827,-1.7802,-1.7926,-1.7928,-1.793,-1.793,-1.7933,-1.7936,0,0,0,0,0,-1.7496,-1.753,-1.7534,-1.7546,-1.7614,-1.7661,-1.767,-1.769,-1.7682,-1.77,-1.7724,-1.7728,-1.7819,-1.7802,-1.7814,-1.7835,-1.7925,-1.7928,-1.793,-1.7929,-1.7933,-1.7936,0,0,0,0,0,0,-1.7488,-1.7536,-1.7541,-1.759,-1.7621,-1.7663,-1.7686,-1.7693,-1.7727,-1.7726,-1.7749,-1.7758,-1.7804,-1.7824,-1.7805,-1.7881,-1.7871,-1.7876,-1.7866,-1.787,-1.7873,-1.7867,-1.7805,0,0,0,0,0,-1.7492,-1.7526,-1.7566,-1.7605,-1.7621,-1.7651,-1.7672,-1.7685,-1.7718,-1.7732,-1.7759,-1.7791,-1.7827,-1.785,-1.7885,-1.7934,-1.7943,-1.7954,-1.7957,-1.7959,-1.7963,-1.799,-1.7996,-1.794,-1.794,-1.794,0,0,-1.75,-1.7531,-1.7551,-1.7605,-1.763,-1.7665,-1.7662,-1.7699,-1.7725,-1.7737,-1.7783,-1.7804,-1.7842,-1.789,-1.7912,-1.7908,-1.798,-1.7962,-1.7964,-1.7967,-1.7994,-1.7999,-1.8003,-1.7942,-1.7942,-1.7942,0,0,-1.7533,-1.756,-1.7596,-1.7622,-1.7661,-1.7681,-1.769,-1.7731,-1.7746,-1.7792,-1.7802,-1.7834,-1.7895,-1.7921,-1.7942,-1.7987,-1.7992,-1.7998,-1.8012,-1.8039,-1.8043,-1.8047,-1.8063,-1.8068,-1.8002,-1.8002,-1.8002,0,-1.7538,-1.7592,-1.7613,-1.765,-1.7673,-1.7687,-1.7723,-1.7747,-1.7796,-1.7812,-1.7807,-1.7884,-1.7911,-1.7965,-1.7976,-1.7993,-1.8003,-1.7992,-1.8041,-1.8045,-1.8049,-1.8064,-1.807,-1.8002,-1.8002,-1.8002,-1.8002,0,-1.7596,-1.7633,-1.7657,-1.7704,-1.7731,-1.7767,-1.7794,-1.7818,-1.7829,-1.7849,-1.7897,-1.7929,-1.7971,-1.7985,-1.7995,-1.8041,-1.8037,-1.8036,-1.8026,-1.8054,-1.8069,-1.8075,-1.8003,-1.8002,-1.8002,-1.8002,0,0,-1.7625,-1.7684,-1.7693,-1.7715,-1.776,-1.7789,-1.7826,-1.7867,-1.7887,-1.7921,-1.7953,-1.8005,-1.8005,-1.8029,-1.8043,-1.8066,-1.8099,-1.8063,-1.8064,-1.8068,-1.8151,-1.8151,-1.8158,-1.8104,-1.8105,-1.8106,-1.8148,0,-1.7663,-1.773,-1.7751,-1.7807,-1.7841,-1.7855,-1.7887,-1.7919,-1.7939,-1.7971,-1.7994,-1.803,-1.8027,-1.8042,-1.8066,-1.809,-1.8116,-1.8088,-1.8133,-1.8134,-1.8122,-1.8165,-1.8165,-1.8204,-1.8154,-1.8155,-1.8156,0,-1.7716,-1.7751,-1.781,-1.7852,-1.7867,-1.7896,-1.7935,-1.7966,-1.8002,-1.8015,-1.8043,-1.8055,-1.8095,-1.8084,-1.8139,-1.8118,-1.8139,-1.8154,-1.8156,-1.816,-1.8146,-1.817,-1.8216,-1.8222,-1.8165,-1.8164,-1.8164,0,-1.7731,-1.7793,-1.7836,-1.7854,-1.7904,-1.7924,-1.7945,-1.798,-1.8004,-1.8039,-1.8055,-1.8094,-1.8115,-1.8145,-1.8168,-1.8157,-1.8221,-1.8211,-1.8233,-1.8232,-1.8244,-1.8243,-1.8294,-1.8258,-1.8258,-1.8258,-1.8258,0,-1.777,-1.7806,-1.7843,-1.787,-1.7911,-1.7935,-1.7974,-1.7997,-1.8028,-1.8059,-1.8074,-1.8103,-1.8131,-1.8164,-1.8183,-1.8225,-1.8235,-1.8246,-1.8251,-1.8245,-1.8243,-1.8258,-1.8255,-1.826,-1.8259,-1.8259,-1.8259,0,-1.7793,-1.782,-1.7868,-1.7911,-1.7923,-1.7951,-1.7988,-1.8014,-1.8036,-1.8075,-1.8086,-1.812,-1.8159,-1.8185,-1.8236,-1.8248,-1.8295,-1.8298,-1.8282,-1.8284,-1.8304,-1.8302,-1.8365,-1.8374,-1.8333,-1.8334,-1.8334,0,-1.7816,-1.7844,-1.7891,-1.7913,-1.7934,-1.797,-1.7995,-1.802,-1.8045,-1.8088,-1.811,-1.815,-1.8184,-1.8247,-1.8276,-1.8315,-1.8319,-1.8339,-1.8325,-1.8318,-1.8319,-1.8317,-1.832,-1.8341,-1.8341,-1.8341,-1.8341,0,-1.7855,-1.7867,-1.7901,-1.7941,-1.797,-1.8002,-1.8035,-1.8052,-1.8083,-1.811,-1.8151,-1.8178,-1.823,-1.827,-1.8312,-1.8334,-1.8343,-1.8346,-1.8353,-1.8346,-1.8336,-1.8341,-1.8288,-1.8344,-1.8344,-1.8343,-1.8343,-1.8343,-1.7878,-1.7903,-1.794,-1.7979,-1.8006,-1.8036,-1.8063,-1.8089,-1.8123,-1.8168,-1.8181,-1.8223,-1.8259,-1.8316,-1.834,-1.8373,-1.8371,-1.8381,-1.8384,-1.8385,-1.8385,-1.8331,-1.8381,-1.8381,-1.8381,-1.8381,-1.8381,0,-1.7917,-1.7941,-1.7976,-1.8022,-1.8052,-1.8059,-1.8095,-1.812,-1.8157,-1.819,-1.8224,-1.8271,-1.831,-1.8343,-1.8384,-1.8404,-1.841,-1.8414,-1.8412,-1.8417,-1.8385,-1.8375,-1.8409,-1.8409,-1.8409,-1.8409,-1.8409,-1.8409,-1.794,-1.7984,-1.8,-1.8058,-1.8082,-1.8124,-1.8144,-1.8173,-1.8199,-1.8251,-1.8284,-1.8305,-1.8338,-1.8382,-1.8418,-1.8427,-1.8441,-1.8445,-1.8454,-1.8423,-1.842,-1.8417,-1.8407,-1.8448,-1.8448,-1.8483,-1.8484,-1.8484]}]]